Regional Weather Roundup
Issued by NWS

Home | Current Version | Previous Version | Graphics & Text | Print | Product List | Glossary On
Versions: 1 2 3 4 5 6 7 8 9 10 11 12 13 14 15 16 17 18 19 20 21 22 23 24 25 26 27 28 29 30 31 32 33 34 35 36 37 38 39 40 41 42 43 44 45 46 47 48 49 50
337
ASUS43 KBIS 240710
RWRND
NORTH DAKOTA REGIONAL WEATHER ROUNDUP
NATIONAL WEATHER SERVICE EASTERN NORTH DAKOTA/GRAND FORKS ND
200 AM CDT WED MAY 24 2017

  NOTE: "FAIR" INDICATES FEW OR NO CLOUDS BELOW 12,000 FEET WITH NO
  SIGNIFICANT WEATHER AND/OR OBSTRUCTIONS TO VISIBILITY.

NDZ001>003-009>011-017-240800-
...NORTHWEST NORTH DAKOTA...

CITY           SKY/WX    TMP DP  RH WIND       PRES   REMARKS
WILLISTON      FAIR      57  36  45 S9        29.79F
MINOT          FAIR      54  38  54 S12       29.86F
MINOT AFB      FAIR      54  39  56 S14       29.84F
$$

NDZ018>021-031>035-040>046-240800-
...SOUTHWEST NORTH DAKOTA...

CITY           SKY/WX    TMP DP  RH WIND       PRES   REMARKS
BISMARCK       FAIR      41  37  86 SE5       29.92F
DICKINSON      FAIR      44  34  67 SE13      29.86F
GARRISON         N/A     45  37  73 S6        29.88F
HETTINGER      FAIR      44  34  67 SE8       29.91F
$$

NDZ004>008-012>016-024-026-027-054-240800-
...NORTHEAST NORTH DAKOTA...

CITY           SKY/WX    TMP DP  RH WIND       PRES   REMARKS
GRAND FORKS    FAIR      44  41  89 CALM      29.90F
GRAND FORKS AF FAIR      44  41  92 W3        29.90F
DEVILS LAKE    FAIR      43  40  89 SE3       29.90F
$$

NDZ022-023-025-028>030-036>039-047>053-240800-
...SOUTHEAST NORTH DAKOTA...

CITY           SKY/WX    TMP DP  RH WIND       PRES   REMARKS
JAMESTOWN      FAIR      37  36  96 CALM      29.90F
FARGO          FAIR      42  40  92 CALM      29.89F
WAHPETON       FAIR      43  39  87 NE5       29.87F
$$




USA.gov is the U.S. government's official web portal to all federal, state and local government web resources and services.